2023/01/27 00:00:00,53.7,-0.6
2023/01/27 00:10:00,53.7,-0.4
2023/01/27 00:20:00,53.7,-0.7
2023/01/27 00:30:00,53.7,-0.5
2023/01/27 00:40:00,53.6,-0.8
2023/01/27 00:50:00,53.6,-0.9
2023/01/27 01:00:00,53.5,-0.8
2023/01/27 01:10:00,53.5,-0.8
2023/01/27 01:20:00,53.5,-1.0
2023/01/27 01:30:00,53.4,-0.9
2023/01/27 01:40:00,53.4,-0.8
2023/01/27 01:50:00,53.3,-0.8
2023/01/27 02:00:00,53.2,-0.8
2023/01/27 02:10:00,53.1,-1.1
2023/01/27 02:20:00,53.1,-1.0
2023/01/27 02:30:00,53.0,-0.9
2023/01/27 02:40:00,53.0,-0.9
2023/01/27 02:50:00,52.9,-0.9
2023/01/27 03:00:00,52.8,-0.8
2023/01/27 03:10:00,52.8,-1.0
2023/01/27 03:20:00,52.8,-0.7
2023/01/27 03:30:00,52.7,-0.8
2023/01/27 03:40:00,52.7,-0.8
2023/01/27 03:50:00,52.7,-1.1
2023/01/27 04:00:00,52.7,-0.8
2023/01/27 04:10:00,52.7,-0.8
2023/01/27 04:20:00,52.7,-0.7
2023/01/27 04:30:00,52.6,-0.7
2023/01/27 04:40:00,52.6,-0.9
2023/01/27 04:50:00,52.5,-0.7
2023/01/27 05:00:00,52.5,-0.7
2023/01/27 05:10:00,52.4,-1.1
2023/01/27 05:20:00,52.4,-0.7
2023/01/27 05:30:00,52.4,-0.6
2023/01/27 05:40:00,52.3,-0.8
2023/01/27 05:50:00,52.3,-0.7
2023/01/27 06:00:00,52.2,-0.6
2023/01/27 06:10:00,52.5,-0.4
2023/01/27 06:20:00,52.5,-0.6
2023/01/27 06:30:00,52.6,-0.4
2023/01/27 06:40:00,52.7,-0.7
2023/01/27 06:50:00,52.7,-0.4
2023/01/27 07:00:00,52.8,-0.4
2023/01/27 07:10:00,53.2,-0.5
2023/01/27 07:20:00,53.3,-0.4
2023/01/27 07:30:00,53.4,-0.2
2023/01/27 07:40:00,53.4,-0.4
2023/01/27 07:50:00,53.4,-0.2
2023/01/27 08:00:00,53.3,-0.2
2023/01/27 08:10:00,53.2, 0.1
2023/01/27 08:20:00,53.2, 0.1
2023/01/27 08:30:00,53.2, 0.4
2023/01/27 08:40:00,53.1, 0.3
2023/01/27 08:50:00,53.1, 0.6
2023/01/27 09:00:00,53.1, 0.8
2023/01/27 09:10:00,53.0, 0.6
2023/01/27 09:20:00,53.0, 0.9
2023/01/27 09:30:00,52.9, 1.0
2023/01/27 09:40:00,52.9, 1.2
2023/01/27 09:50:00,52.8, 1.5
2023/01/27 10:00:00,52.7, 1.7
2023/01/27 10:10:00,52.6, 2.2
2023/01/27 10:20:00,52.5, 3.2
2023/01/27 10:30:00,52.4, 2.4
2023/01/27 10:40:00,52.3, 2.4
2023/01/27 10:50:00,52.3, 2.6
2023/01/27 11:00:00,52.4, 2.5
2023/01/27 11:10:00,52.4, 3.1
2023/01/27 11:20:00,52.4, 2.6
2023/01/27 11:30:00,52.5, 2.7
2023/01/27 11:40:00,52.6, 2.8
2023/01/27 11:50:00,52.4, 2.8
2023/01/27 12:00:00,52.3, 3.1
2023/01/27 12:10:00,52.2, 3.5
2023/01/27 12:20:00,52.0, 5.7
2023/01/27 12:30:00,51.8, 4.4
2023/01/27 12:40:00,51.7, 4.3
2023/01/27 12:50:00,51.4, 5.7
2023/01/27 13:00:00,51.2, 5.9
2023/01/27 13:10:00,50.8, 4.3
2023/01/27 13:20:00,50.6, 4.1
2023/01/27 13:30:00,50.3, 4.5
2023/01/27 13:40:00,50.0, 4.7
2023/01/27 13:50:00,49.7, 3.9
2023/01/27 14:00:00,49.7, 2.9
2023/01/27 14:10:00,49.7, 2.2
2023/01/27 14:20:00,50.5, 1.9
2023/01/27 14:30:00,51.2, 1.7
2023/01/27 14:40:00,51.9, 1.5
2023/01/27 14:50:00,52.2, 1.4
2023/01/27 15:00:00,53.1, 1.4
2023/01/27 15:10:00,53.7, 1.7
2023/01/27 15:20:00,53.6, 1.5
2023/01/27 15:30:00,53.9, 1.3
2023/01/27 15:40:00,54.2, 1.0
2023/01/27 15:50:00,55.3, 1.0
2023/01/27 16:00:00,55.3, 1.0
2023/01/27 16:10:00,55.4, 1.0
2023/01/27 16:20:00,55.8, 0.8
2023/01/27 16:30:00,56.4, 0.8
2023/01/27 16:40:00,56.6, 1.0
2023/01/27 16:50:00,56.8, 1.0
2023/01/27 17:00:00,57.0, 1.0
2023/01/27 17:10:00,57.3, 1.0
2023/01/27 17:20:00,58.3, 1.0
2023/01/27 17:30:00,58.8, 0.7
2023/01/27 17:40:00,58.6, 0.6
2023/01/27 17:50:00,59.1, 0.4
2023/01/27 18:00:00,59.7, 0.1
2023/01/27 18:10:00,59.7, 0.1
2023/01/27 18:20:00,60.0,-0.1
2023/01/27 18:30:00,60.9,-0.1
2023/01/27 18:40:00,61.4, 0.0
2023/01/27 18:50:00,62.4,-0.1
2023/01/27 19:00:00,62.9,-0.2
2023/01/27 19:10:00,63.5,-0.2
2023/01/27 19:20:00,64.1,-0.3
2023/01/27 19:30:00,64.6,-0.2
2023/01/27 19:40:00,64.7,-0.3
2023/01/27 19:50:00,64.6,-0.4
2023/01/27 20:00:00,64.6,-0.4
2023/01/27 20:10:00,65.0,-0.4
2023/01/27 20:20:00,65.3,-0.6
2023/01/27 20:30:00,65.2,-0.3
2023/01/27 20:40:00,65.5,-0.6
2023/01/27 20:50:00,65.6,-0.5
2023/01/27 21:00:00,65.4,-0.6
2023/01/27 21:10:00,65.4,-0.4
2023/01/27 21:20:00,65.5,-0.5
2023/01/27 21:30:00,66.3,-0.6
2023/01/27 21:40:00,67.7,-0.6
2023/01/27 21:50:00,68.5,-0.9
2023/01/27 22:00:00,69.0,-0.8
2023/01/27 22:10:00,69.0,-0.6
2023/01/27 22:20:00,69.2,-0.7
2023/01/27 22:30:00,69.3,-0.6
2023/01/27 22:40:00,69.6,-0.6
2023/01/27 22:50:00,70.2,-0.4
2023/01/27 23:00:00,71.1,-0.4
2023/01/27 23:10:00,71.8,-0.3
2023/01/27 23:20:00,72.8,-0.3
2023/01/27 23:30:00,73.7,-0.2
2023/01/27 23:40:00,74.5,-0.3
2023/01/27 23:50:00,75.6,-0.7
